GFSSGP_con_mucape_132.txt.gz
CAPE
0 0 0 0 0 0 0 0 0 1 0 59 55 51 64 61 95 92 830 808 1106 1630 1966 2004 1716 1875 1840 1683 1387 1234 1191 1194 1227 1313 1437 1381 1278 1321 1362 1535 1773 1523 848 258 140 96 153 247 225
0 0 0 0 0 0 0 0 27 0 113 111 127 211 75 137 94 297 1352 1252 1020 1525 1810 1865 1819 1741 1858 1650 1367 1246 1237 1228 1239 1327 1509 1495 1437 1330 1349 1403 1396 1008 473 196 145 85 86 108 79
0 0 0 0 0 0 0 0 5 0 0 174 140 163 157 173 125 884 1365 1139 1107 1318 1438 1801 2058 1756 1840 1639 1364 1300 1261 1242 1256 1361 1530 1531 1617 1440 1271 1244 1200 745 375 267 280 226 222 268 273
0 0 0 0 0 0 0 0 0 0 0 649 317 395 209 120 361 850 1424 1294 1000 1023 1299 2148 2115 1881 1800 1655 1419 1361 1313 1295 1321 1415 1489 1613 1631 1544 1314 1088 894 687 346 308 345 418 474 436 397
0 0 0 0 0 0 0 0 0 0 3 0 357 67 202 138 112 967 1521 1142 794 948 1457 2015 2039 1968 1850 1702 1513 1431 1341 1262 1332 1453 1459 1547 1563 1473 1304 1065 844 810 683 493 483 478 660 517 485
0 0 0 0 0 0 0 0 0 1 13 152 451 195 110 32 765 1468 1260 811 867 1192 1643 1837 2049 1936 1763 1636 1528 1428 1292 1269 1341 1435 1453 1455 1399 1361 1266 1054 886 810 853 897 700 757 564 347 231
0 0 0 0 0 0 0 10 0 0 31 185 266 189 131 65 392 1360 1064 906 1081 1165 1464 1705 1728 1781 1793 1570 1488 1403 1255 1245 1317 1331 1317 1304 1234 1213 1141 1011 860 670 710 938 1068 868 634 449 340
0 0 0 0 0 0 0 0 0 0 64 0 599 730 346 457 962 1178 1111 1204 1085 970 1237 1315 1463 1581 1445 1382 1606 1461 1357 1348 1292 1291 1251 1184 1152 1100 1005 668 769 679 543 635 780 879 765 577 469
0 0 0 0 0 0 0 0 0 0 28 0 691 833 393 588 1103 1272 1151 1046 958 756 997 1158 1235 1297 1237 1349 1464 1480 1469 1458 1335 1259 1218 853 595 632 682 505 767 744 572 500 585 691 665 612 597
0 0 0 0 0 0 0 0 0 0 0 0 15 620 456 713 1130 1145 1014 934 895 599 560 891 1024 1247 1239 1364 1276 1146 1084 1106 971 908 838 483 314 309 380 415 683 783 679 507 436 491 536 544 41
0 0 0 0 0 0 0 0 0 0 0 0 0 37 931 709 880 1209 992 833 901 387 344 477 712 889 1044 1177 1018 1045 1060 903 817 724 612 315 115 188 217 54 162 316 438 86 166 87 55 18 3
0 0 0 0 0 0 0 0 0 0 0 0 0 355 84 412 396 544 711 737 702 640 726 278 272 409 604 779 891 753 799 698 635 553 471 208 24 0 10 3 0 25 95 63 6 0 2 2 11
0 0 0 0 0 0 0 0 0 0 0 0 0 0 0 100 257 256 482 789 791 832 572 76 118 166 217 312 399 407 513 473 406 320 259 91 0 0 33 6 17 38 33 58 184 153 255 237 130
0 0 0 0 0 0 0 0 0 0 0 0 0 0 2 144 91 202 39 395 724 506 565 279 127 75 93 157 124 99 101 83 46 25 21 47 0 0 0 86 67 87 83 329 255 202 184 421 335
0 0 0 0 0 0 0 0 0 0 0 0 0 0 0 0 121 403 31 87 234 455 506 302 316 238 332 179 172 118 96 43 17 0 14 65 0 0 0 67 277 230 90 823 650 812 649 800 799
0 0 0 0 0 0 0 0 0 0 0 0 0 0 0 0 0 0 6 31 82 180 244 239 222 370 629 586 339 408 549 129 424 462 504 747 584 46 20 518 778 718 914 925 960 820 749 668 366
0 0 0 0 0 0 0 0 0 0 0 0 0 0 2 0 0 81 195 211 255 337 193 314 435 583 791 1331 1749 896 763 743 687 902 877 984 1083 1057 1007 1128 1751 1422 1361 1247 933 756 599 137 14
0 0 0 0 0 0 0 0 0 0 0 0 0 0 0 0 0 0 223 254 375 321 161 198 342 462 742 1042 1310 1603 1626 1028 735 1183 1117 1145 1222 1195 1212 1635 1620 1349 1171 1107 1053 846 558 177 2
0 0 0 0 0 0 0 0 0 0 0 0 0 0 0 0 0 0 0 379 338 189 137 105 306 21 216 513 731 1140 1546 1875 2275 1525 1710 1720 1537 1379 1334 1442 1597 1262 1157 1020 1003 707 291 456 291
0 0 0 0 0 0 0 0 0 0 0 0 0 0 0 0 0 0 0 89 349 410 111 194 202 77 188 376 639 849 1457 1535 1878 2175 2327 2261 2189 1930 1661 1444 1355 1354 1021 1007 783 441 604 876 699
0 0 0 0 15 38 34 2 0 0 0 0 0 0 0 0 0 0 0 15 75 214 67 86 15 0 11 52 490 767 1756 1814 1967 2140 2390 2237 2304 2210 2138 1813 1615 1299 1128 938 734 888 915 748 572
0 0 0 0 36 40 73 0 1 0 0 0 0 0 0 0 0 0 0 0 9 33 98 183 122 76 25 91 534 1425 2072 2004 2308 2322 2347 2443 2029 2242 2288 2035 1628 1328 1317 1108 825 936 1021 908 463
0 0 0 0 7 48 41 0 0 0 0 0 0 0 0 0 0 0 0 0 0 0 81 88 388 718 489 557 1034 2061 2297 2030 2013 2446 2325 2507 2296 2152 2051 1918 1709 1449 1315 1049 869 320 850 741 354
0 0 0 0 3 0 0 0 0 0 0 0 0 0 0 0 0 0 0 0 4 24 1 72 149 302 1315 1463 1542 2169 1809 1528 1215 1244 1377 1913 2043 2175 2151 1865 1648 1271 1303 1131 770 392 552 549 461
0 0 0 0 0 0 0 0 0 0 0 0 0 0 7 0 0 0 0 15 38 119 120 141 300 278 1363 1508 1206 1537 1608 1606 1594 1469 1300 1687 1889 1895 1833 1771 1491 1497 1245 1056 662 349 289 189 58
0 0 0 0 0 2 0 0 0 0 0 0 0 0 9 0 0 0 80 189 291 327 1003 1104 1363 1130 1726 2273 1697 1522 1573 1377 1269 1481 1536 1032 1025 1259 1516 1724 1496 1278 969 801 498 358 159 29 24
0 0 0 0 0 1 0 0 2 0 3 0 0 0 0 0 22 321 416 532 668 792 857 871 1000 1140 1168 1206 1217 1261 1185 1188 988 818 681 664 501 402 354 389 412 598 413 220 99 55 44 25 43
0 0 0 0 0 0 3 36 34 40 4 0 0 0 29 247 400 434 531 461 435 516 580 553 586 520 464 454 477 579 670 696 514 421 372 311 275 223 183 224 250 250 196 130 130 98 74 68 73
0 0 0 0 0 0 0 0 89 81 0 0 0 1 515 598 514 435 508 486 422 395 355 301 283 242 179 122 148 163 205 196 187 170 140 101 103 106 40 34 87 176 115 112 211 248 198 191 208
0 0 0 0 0 10 0 0 10 65 0 0 0 370 551 353 408 257 266 281 241 147 82 35 60 52 3 4 78 82 69 29 0 8 13 0 9 27 47 57 31 29 53 71 48 54 58 77 103

GFSSGP_con_mucape_135.txt.gz
CAPE
0 0 0 0 0 0 0 18 8 0 18 47 7 36 19 41 1 0 622 559 888 1303 1648 1685 1893 1762 1668 1388 1254 1113 1041 1063 1084 1014 1038 1167 1417 1698 1738 1723 1725 1172 589 336 228 396 495 435 321
0 0 0 0 0 0 0 0 6 0 107 49 103 81 33 11 70 480 631 591 1047 1382 1515 1269 1852 1832 1758 1413 1242 1170 1090 1034 1128 1080 1087 1158 1262 1407 1465 1738 1583 980 346 227 186 191 270 219 122
0 0 0 0 0 0 0 0 0 1 0 0 99 66 43 80 43 652 926 728 989 1352 1338 1087 1797 1777 1763 1450 1237 1206 1125 1052 1178 1245 1236 1240 1317 1369 1441 1509 1337 738 309 298 206 178 225 250 350
0 0 0 0 0 0 0 0 0 0 0 0 24 134 14 34 42 818 1015 781 1017 1256 1290 1497 1720 1735 1697 1538 1344 1242 1192 1127 1223 1395 1387 1367 1337 1329 1313 1334 1116 868 432 400 388 394 407 312 283
0 0 0 0 0 0 0 0 0 0 0 0 125 68 4 20 18 943 1063 782 782 1024 1156 1667 1684 1763 1736 1597 1474 1395 1307 1213 1285 1459 1384 1436 1584 1418 1213 1041 963 790 494 449 442 553 630 536 377
0 0 0 0 0 0 0 0 0 0 0 26 135 60 26 127 1136 1193 1098 713 678 821 1186 1746 1807 1758 1665 1621 1498 1373 1283 1316 1383 1416 1514 1597 1568 1448 1255 963 926 994 904 701 523 526 436 210 149
0 0 0 0 0 0 0 0 0 0 0 72 96 151 21 543 1539 1354 1192 696 702 1078 1606 1667 1660 1727 1704 1531 1426 1340 1270 1310 1362 1339 1378 1438 1447 1362 1209 972 885 919 981 1080 976 736 522 320 247
0 0 0 0 0 0 0 0 0 0 0 0 307 486 314 75 1565 1330 1165 1002 1084 1411 1470 1376 1396 1647 1457 1370 1573 1457 1354 1329 1321 1350 1347 1312 1274 1231 1148 766 768 736 765 900 1012 934 715 527 435
0 0 0 0 0 0 0 0 0 0 0 0 174 889 806 1245 1364 1397 1215 1136 1101 1189 1250 1203 1129 1345 1324 1246 1343 1453 1326 1400 1379 1351 1299 993 738 785 744 580 792 821 677 688 777 842 771 669 623
0 0 0 0 0 0 0 0 0 0 0 3 7 760 945 1277 1136 1065 1070 921 844 885 1028 903 891 1290 1249 1126 1212 1151 1005 1129 1011 974 938 576 442 436 450 458 849 957 796 647 641 702 702 654 62
0 0 0 0 0 0 0 0 0 0 0 0 0 827 957 818 1039 1143 962 845 760 603 732 601 583 650 1357 1158 937 1230 1010 875 850 762 672 419 308 329 407 270 335 297 532 220 300 144 129 12 0
0 0 0 0 0 0 0 0 0 0 0 0 11 57 872 878 836 907 857 731 713 620 414 680 665 683 1026 1042 646 1144 876 638 772 626 568 381 212 96 116 37 0 0 95 209 39 2 0 0 3
0 0 0 0 0 0 0 0 0 0 0 0 0 0 55 730 813 781 633 681 666 760 287 243 353 449 642 775 541 802 845 613 510 530 524 387 134 8 3 0 0 0 1 141 193 46 332 287 35
0 0 0 0 0 0 0 0 0 0 0 0 0 20 0 20 632 541 411 341 512 617 716 381 142 181 238 204 332 324 390 416 407 354 338 331 104 0 0 2 23 4 21 144 375 416 336 328 411
0 0 0 0 0 0 0 0 0 0 0 0 0 0 8 0 0 22 135 19 340 520 515 451 96 32 174 74 135 106 103 155 83 61 103 99 55 0 0 0 46 190 197 123 652 934 774 858 585
0 0 0 0 0 0 0 0 0 0 0 0 0 0 0 3 196 17 0 0 101 106 573 473 258 181 323 345 253 166 113 240 46 4 2 8 31 16 0 0 16 226 530 563 513 919 1055 820 595
0 0 0 0 0 0 0 0 0 0 0 0 0 0 0 0 0 0 2 0 18 84 372 348 198 317 427 661 654 674 399 522 514 66 466 422 674 905 578 689 585 611 962 1001 1160 1099 1098 838 742
0 0 0 0 0 0 0 0 0 0 0 0 0 0 0 0 0 0 59 172 101 64 148 201 291 375 518 679 470 852 829 881 710 495 601 732 791 1041 1179 1137 1058 1031 1710 1508 1432 1330 1171 883 602
0 0 0 0 0 0 0 0 0 0 0 0 0 0 0 0 0 0 225 189 281 365 417 349 347 400 479 429 618 1226 1453 1375 1275 923 714 770 936 958 1163 1199 1079 1154 1406 1217 1015 886 872 830 415
0 0 0 0 0 0 0 0 0 0 0 0 0 0 0 0 0 0 2 293 364 563 450 229 292 317 430 516 777 1189 1303 1291 1679 1718 1641 1446 1361 1346 1373 1227 1016 1043 1124 1046 851 743 838 768 379
0 0 0 0 0 0 0 0 0 0 0 0 0 0 0 0 0 0 16 155 398 387 279 211 113 230 313 458 761 808 895 1352 1424 1553 1757 2007 1890 1714 1629 1583 1239 1138 1178 1109 959 852 680 579 597
0 0 0 0 0 0 0 0 0 0 0 0 0 0 0 0 0 0 0 28 286 360 298 152 68 2 36 283 25 227 473 1000 1515 1414 1506 1608 1826 2082 2035 1960 1740 1360 1301 1168 981 942 690 631 578
0 0 0 0 0 0 0 0 0 0 0 0 0 0 0 0 0 0 1 1 45 94 274 353 283 60 108 41 34 173 711 1338 1783 1776 1889 2214 1948 2025 2157 2037 1880 1626 1388 1329 1096 1106 860 794 788
0 0 0 0 0 0 0 0 0 0 0 0 0 0 0 0 0 0 0 0 0 0 32 142 146 153 250 138 55 290 1242 1461 1279 1403 1432 1335 1529 1841 1985 2048 1873 1700 1573 1457 1215 1047 799 683 403
0 0 0 0 0 0 0 0 0 0 0 0 0 0 0 0 0 0 10 0 0 0 0 58 114 258 324 344 789 758 1011 1163 1338 1159 891 967 1062 1104 1256 1420 1708 1485 1276 1352 1135 1100 945 720 403
0 0 0 0 0 0 0 0 0 0 0 0 0 0 0 0 0 11 0 55 108 11 19 65 123 310 759 1189 1136 1307 1121 1050 853 852 759 622 546 649 758 851 1212 1170 1228 1212 1050 814 655 414 368
0 0 0 0 0 0 0 0 0 3 2 0 0 0 0 0 25 88 317 911 658 461 422 385 493 759 1002 865 750 829 831 786 671 434 331 192 163 242 226 212 372 487 529 571 646 513 297 178 119
0 0 0 0 0 0 0 0 3 1 4 8 0 0 3 132 430 629 776 963 880 858 954 922 793 849 735 600 414 413 577 510 338 310 251 214 191 137 162 167 116 154 160 123 172 141 93 70 41
0 0 0 0 0 0 0 0 0 45 6 0 0 44 427 642 780 706 559 519 503 491 418 334 390 391 335 241 175 178 241 239 196 132 121 138 128 89 117 84 53 9 52 136 89 112 73 57 56
0 0 0 0 0 0 0 0 11 55 19 0 318 519 616 627 435 301 270 366 348 383 375 360 327 295 259 240 175 190 170 127 85 31 0 0 0 0 0 0 0 1 10 40 82 78 79 103 76

GFSSGP_con_mucape_138.txt.gz
CAPE
0 0 0 0 0 0 0 1 0 1 3 0 3 2 0 0 0 0 291 314 952 1173 1442 1764 1842 1724 1479 1379 1272 1223 1181 1124 1156 1147 1195 1339 1483 1654 1739 1654 1526 1030 635 377 527 674 617 560 625
0 0 0 0 0 0 0 0 0 0 0 1 10 69 14 1 26 548 434 467 918 1265 1406 1536 1919 1789 1478 1310 1172 1133 1118 1079 1076 1128 1251 1469 1575 1651 1648 1703 1554 761 439 335 470 611 513 381 311
0 0 0 0 0 0 0 0 0 0 0 0 2 24 27 10 43 544 723 800 994 1240 1284 1365 1880 1773 1543 1329 1192 1162 1106 963 1016 1061 1176 1344 1543 1642 1723 1744 1396 603 331 308 322 395 538 375 611
0 0 0 0 0 0 0 0 0 0 0 0 0 0 29 24 77 695 669 942 1076 1168 1022 1687 1872 1784 1496 1361 1250 1169 1119 1070 1050 1104 1188 1260 1195 1412 1492 1451 1194 809 447 339 333 448 626 574 537
0 0 0 0 0 0 0 0 0 0 0 0 0 0 96 48 856 976 815 965 1055 1185 1000 1651 1866 1800 1593 1394 1317 1228 1172 1144 1225 1303 1300 1212 1256 1275 1213 1092 966 827 540 441 456 510 734 594 477
0 0 0 0 0 0 0 0 0 0 0 0 0 34 93 883 1084 1066 847 814 1085 1140 1369 1459 1736 1747 1575 1433 1371 1237 1172 1194 1339 1414 1464 1482 1370 1254 1028 869 881 854 789 587 458 532 410 239 181
0 0 0 0 0 0 0 0 0 0 0 0 25 106 132 1344 1122 1044 690 797 885 1258 1453 1381 1442 1448 1538 1452 1309 1217 1161 1205 1231 1309 1400 1443 1410 1241 1019 785 815 907 909 919 763 498 316 171 116
0 0 0 0 0 0 0 0 0 0 0 0 32 400 312 1131 1243 1065 753 930 1174 1301 1451 1175 1065 1251 1177 1174 1373 1249 1189 1240 1172 1174 1226 1246 1254 1147 1005 594 626 684 741 891 837 653 482 366 288
0 0 0 0 0 0 0 0 0 0 0 0 259 645 878 1361 1353 1116 914 977 1036 1213 1243 1235 1147 1442 1025 1062 1032 1234 1097 1205 1230 1186 1132 815 579 710 774 526 612 722 604 633 689 718 677 580 526
0 0 0 0 0 0 0 0 0 0 0 0 749 1090 1258 1336 1366 1167 1112 861 814 830 1003 1043 968 1279 995 1128 836 859 847 863 696 661 678 365 276 304 359 430 594 987 770 571 527 589 611 550 53
0 0 0 0 0 0 0 0 0 0 0 0 698 1019 1134 1238 1230 1245 1118 1078 880 782 1129 840 730 593 681 965 675 828 811 688 562 517 457 240 165 162 290 198 231 336 457 228 227 60 28 1 0
0 0 0 0 0 0 0 0 0 0 0 0 73 909 881 1064 1143 1115 1148 1086 864 787 894 707 681 669 754 885 657 690 809 618 466 448 375 232 112 42 26 28 6 0 3 37 4 0 0 0 0
0 0 0 0 0 0 0 0 0 0 0 0 7 701 883 913 853 1005 1044 1019 891 758 659 892 724 933 1309 829 615 605 583 509 344 383 400 316 156 14 1 0 0 0 0 0 40 12 1 42 11
0 0 0 0 0 0 0 0 0 0 0 0 0 104 452 668 662 738 862 965 918 815 701 389 533 608 731 876 511 515 513 450 427 428 409 414 290 117 2 0 0 0 0 0 56 156 267 247 273
0 0 0 0 0 0 0 0 0 0 0 0 0 0 5 137 364 370 563 568 634 710 813 585 174 276 387 439 527 433 458 505 508 422 411 378 313 147 25 0 0 0 3 16 34 251 700 759 677
0 0 0 0 0 0 0 0 0 0 0 0 0 0 0 0 0 10 32 219 307 478 463 505 465 176 81 112 135 128 140 256 331 286 245 219 182 114 37 0 0 0 24 164 256 200 329 732 864
0 0 0 0 0 0 0 0 0 0 0 0 0 0 0 0 0 13 0 0 81 249 275 314 282 168 93 80 77 64 48 85 45 32 6 21 61 73 55 76 42 183 205 457 645 613 688 909 931
0 0 0 0 0 0 0 0 0 0 0 0 0 0 0 0 0 0 0 0 0 100 164 370 423 358 137 312 309 325 191 140 133 416 281 146 295 358 574 620 621 509 452 539 1076 1077 984 1027 995
0 0 0 0 0 0 0 0 0 0 0 0 0 0 0 0 0 0 15 78 77 20 64 343 381 363 230 313 440 419 942 652 381 621 728 371 613 699 644 643 667 872 723 674 1120 1046 944 747 532
0 0 0 0 0 0 0 0 0 0 0 0 0 0 0 0 0 0 0 128 148 83 36 125 388 172 210 268 386 551 836 1242 1431 1211 1111 1056 891 759 590 715 755 813 807 754 739 857 743 555 486
0 0 0 0 0 0 0 0 0 0 0 0 0 0 0 0 0 0 0 0 102 163 214 205 264 265 268 399 463 576 1051 1397 1458 1659 1797 1719 1712 1605 1304 1174 1078 915 856 730 856 782 612 395 376
0 0 0 0 0 0 0 0 0 0 0 0 0 0 0 0 0 0 0 0 97 124 81 254 354 279 181 379 602 663 846 949 1016 1195 1313 1450 1743 1659 1720 1623 1252 1116 1153 1068 963 901 663 501 484
0 0 0 0 0 0 0 0 0 0 0 0 0 0 0 0 0 0 0 0 0 8 75 69 110 186 137 315 265 351 718 788 1034 1063 1110 1368 1518 1622 1664 1777 1753 1536 1330 1109 866 893 620 656 370
0 0 0 0 0 0 0 0 0 0 0 0 0 0 0 0 0 0 0 0 0 0 13 44 172 249 191 89 73 111 391 621 652 786 950 961 899 892 856 1060 1399 1598 1448 1052 886 835 722 645 593
0 0 0 0 0 0 0 0 0 0 0 0 0 0 0 0 0 0 0 0 0 0 0 11 113 255 309 186 247 384 557 710 773 720 755 695 647 586 455 534 557 650 631 891 904 660 661 650 562
0 0 0 0 0 0 0 0 0 0 0 0 0 0 0 0 0 0 0 0 0 0 0 0 9 225 391 410 394 508 582 544 634 534 482 444 288 190 133 186 210 219 479 536 628 533 502 464 382
0 0 0 0 0 0 0 0 0 0 0 0 0 0 0 0 0 0 32 112 30 19 52 62 121 364 504 664 667 519 331 285 312 263 164 135 108 111 118 89 85 71 69 110 140 127 171 179 156
0 0 0 0 0 0 0 0 0 0 0 0 0 0 2 106 133 205 273 301 197 164 199 244 398 452 406 373 358 269 195 194 155 96 103 116 110 126 98 114 120 94 32 42 59 102 101 131 146
0 0 0 0 0 0 0 0 0 0 0 0 0 77 340 432 647 855 821 763 606 580 566 518 450 271 155 113 65 50 110 80 44 44 68 57 16 17 22 17 16 11 0 0 0 0 15 68 74
0 0 0 0 0 0 0 0 0 0 2 11 308 427 552 798 952 825 543 367 169 43 51 35 57 60 12 18 18 121 62 11 0 0 0 0 0 0 0 0 0 0 0 0 0 0 0 1 8

GFSSGP_con_mucape_141.txt.gz
CAPE
0 0 0 0 0 0 0 0 0 0 0 6 7 30 50 37 72 1 698 915 981 1233 1263 1173 1656 1605 1511 1508 1485 1428 1417 1438 1339 1126 1055 1315 1584 1658 1396 1358 1101 721 416 485 646 582 549 723 845
0 0 0 0 0 0 0 0 0 0 0 0 12 124 54 32 329 902 850 828 1012 1213 1173 789 1643 1591 1515 1334 1220 1151 1203 1199 1147 1174 1323 1505 1602 1535 1319 1437 1073 575 356 521 684 587 564 680 614
0 0 0 0 0 0 0 0 0 0 0 0 18 30 8 239 376 786 703 1021 1202 1120 1067 1247 1691 1477 1434 1241 1135 1072 1052 1090 1232 1333 1468 1534 1596 1553 1565 1525 1034 477 317 407 574 482 388 377 587
0 0 0 0 0 0 0 0 0 0 0 0 0 0 96 96 276 871 905 1037 1051 865 828 1651 1708 1490 1384 1226 1132 1020 1008 1047 1145 1304 1399 1397 1245 1442 1548 1357 960 729 334 297 371 390 394 539 605
0 0 0 0 0 0 0 0 0 0 0 0 0 0 40 190 1327 1172 1042 1066 995 918 813 1210 1696 1514 1481 1251 1209 1058 1006 978 1063 1161 1181 1096 1120 1277 1332 1203 992 757 450 351 358 426 436 388 371
0 0 0 0 0 0 0 0 0 0 0 0 3 20 264 1137 1442 1236 1115 1172 998 1025 1126 1205 1654 1543 1415 1354 1273 1135 1043 1111 1196 1208 1229 1152 1164 1083 883 839 714 671 606 450 428 455 394 395 300
0 0 0 0 0 0 0 0 0 0 0 0 0 125 593 1429 1415 1272 1181 1251 1108 1107 1207 1076 996 1307 1550 1445 1239 1145 1141 1251 1295 1351 1361 1296 1225 1012 740 651 592 618 695 615 450 308 250 125 70
0 0 0 0 0 0 0 0 0 0 0 0 2 408 648 1640 1196 1254 1266 1231 1275 1147 1103 1089 1015 761 719 796 1335 1243 1211 1219 1250 1322 1336 1340 1262 1029 725 412 544 476 534 646 611 418 363 241 201
0 0 0 0 0 0 0 0 0 0 0 320 996 1147 1553 1424 1429 1430 1423 1365 1413 1257 1106 1056 1049 986 811 748 969 1178 1071 1148 1226 1191 1265 801 546 637 554 267 374 350 298 439 572 624 559 426 379
0 0 0 0 0 0 0 0 0 0 0 0 1106 1288 1431 1570 1554 1457 1380 1331 1332 1366 1280 1230 1164 1150 1046 696 927 672 585 514 486 473 549 377 448 526 324 390 426 562 473 555 501 483 346 117 0
0 0 0 0 0 0 0 0 0 0 0 0 563 1314 1466 1557 1687 1538 1341 1257 1143 1242 1403 1285 1382 1331 1298 989 932 806 692 673 757 747 854 593 404 444 340 365 284 303 404 158 61 22 0 0 0
0 0 0 0 0 0 0 0 0 0 0 0 1075 1231 1401 1515 1597 1557 1395 1199 1081 1190 1217 1344 1313 1388 1419 1332 1074 953 852 690 573 640 871 703 536 431 347 270 237 260 89 124 199 52 190 169 23
0 0 0 0 0 0 0 0 0 0 0 0 867 953 1257 1455 1378 1373 1409 1314 1243 1141 1038 1214 1233 1324 1466 1526 1230 1130 1130 1034 750 755 811 647 504 413 322 278 177 86 46 29 43 312 563 458 376
0 0 0 0 0 0 0 0 0 0 0 0 775 835 734 1194 1281 1140 1243 1356 1365 1403 1138 1061 1126 1171 1125 1291 1397 1357 1279 1202 1095 764 736 722 580 676 354 265 123 88 67 47 177 521 666 758 623
0 0 0 0 0 0 0 0 0 0 0 0 76 753 376 564 951 1206 1200 1348 1408 1345 1428 1327 1176 1085 1156 1428 1461 1288 1165 1074 1002 956 1013 964 962 936 576 232 128 67 164 449 555 632 706 888 999
0 0 0 0 0 0 0 0 0 0 0 0 0 0 268 251 252 688 974 1116 1089 1205 1196 1257 1059 1122 1273 1677 1588 1197 887 875 875 971 1108 1052 1090 954 647 338 178 101 190 447 734 936 1021 1026 1190
0 0 0 0 0 0 0 0 0 0 0 0 0 0 0 29 174 243 270 657 979 1095 1117 1091 1033 1007 1041 1014 774 765 694 781 604 638 622 781 870 728 602 322 199 214 153 413 715 975 1227 1353 1514
0 0 0 0 0 0 0 0 0 0 0 0 0 0 0 0 0 4 53 31 274 883 1059 1135 975 939 849 640 449 526 327 427 318 190 356 476 422 360 415 347 358 356 309 375 453 1020 1507 1077 1153
0 0 0 0 0 0 0 0 0 0 0 0 0 0 0 0 0 0 0 0 87 291 896 1147 1236 1168 787 786 727 811 1046 861 527 598 678 488 332 357 654 611 668 757 764 1041 1143 969 1180 1234 578
0 0 0 0 0 0 0 0 0 0 0 0 0 0 0 0 0 0 0 148 381 392 431 878 1073 1267 1133 1069 1043 1121 1021 1262 1382 1317 1201 966 844 834 976 1049 1130 1228 1200 1200 933 1022 733 343 780
0 0 0 0 0 0 0 0 0 0 0 0 0 0 0 0 0 0 0 0 179 502 611 588 784 1231 1057 1013 854 880 1447 2096 2196 2350 2284 1870 1328 1210 1348 1414 1586 1508 1486 1625 1380 1281 1058 848 1098
0 0 0 0 0 0 0 0 0 0 0 0 0 0 0 0 0 0 0 0 2 137 393 722 884 918 883 920 887 921 979 1172 1831 2059 2162 2312 2443 2151 1907 1879 1684 1526 1687 1702 1851 1693 1161 798 657
0 0 0 0 0 0 0 0 0 0 0 0 0 0 0 0 0 0 0 0 0 33 300 488 690 982 932 806 927 961 901 1306 1685 1654 1681 1917 1763 1961 2268 2550 2354 1824 1744 1579 1231 945 1319 1049 994
0 0 0 0 0 0 0 0 0 0 0 0 0 0 0 0 0 0 0 0 0 0 22 426 390 482 583 583 684 807 815 976 1044 1323 1520 1119 1009 582 459 512 1425 1771 2006 1549 1751 1523 1121 1329 587
0 0 0 0 0 0 0 0 0 0 0 0 0 0 0 0 0 0 0 0 0 0 3 139 371 325 369 395 469 556 757 1115 927 485 438 418 292 235 225 159 265 387 599 817 860 938 927 1126 1423
0 0 0 0 0 0 0 0 0 0 0 0 0 0 0 0 0 0 0 0 0 0 0 38 302 549 651 629 525 482 360 344 336 290 237 98 56 95 8 10 17 27 87 209 232 305 314 397 478
0 0 0 0 0 0 0 0 0 0 0 0 0 0 0 0 0 0 0 0 0 14 220 282 320 289 349 399 418 482 442 273 149 160 144 99 78 32 25 25 39 43 45 37 31 56 99 131 209
0 0 0 0 0 0 0 0 0 0 0 0 0 0 0 0 2 2 6 9 18 62 145 197 163 293 433 501 311 220 144 75 17 6 16 21 21 23 20 23 38 31 18 1 0 0 0 2 41
0 0 0 0 0 0 0 0 0 6 7 0 0 177 19 18 12 8 54 41 54 107 184 276 272 157 153 140 109 70 43 27 2 2 11 20 5 2 1 0 0 0 0 0 0 0 0 0 0
0 0 0 0 0 0 0 0 0 11 21 0 268 150 10 28 83 159 112 65 48 34 44 72 44 54 32 26 58 48 2 4 0 3 6 0 0 0 0 0 0 0 0 0 0 0 0 0 0

GFSSGP_con_mucape_144.txt.gz
CAPE
0 0 0 0 0 0 0 0 0 0 83 0 8 318 261 161 219 411 1007 791 678 714 273 696 1675 1882 2133 2083 1995 1907 1836 1716 1578 1262 1080 1474 1739 1652 1412 1336 1103 752 496 495 442 413 344 346 423
0 0 0 0 0 0 0 0 0 0 0 0 29 224 106 185 552 1182 1176 753 902 582 160 258 1569 1738 1881 1814 1712 1649 1587 1395 1214 1157 1436 1737 1669 1416 1120 1147 862 533 541 714 635 564 772 1020 1108
0 0 0 0 0 0 0 0 0 0 0 0 10 78 0 530 755 775 1051 1058 956 531 156 693 1723 1624 1614 1646 1527 1463 1382 1298 1352 1462 1672 1687 1628 1544 1517 1283 969 436 515 765 757 618 722 599 509
0 0 0 0 0 0 0 0 0 0 0 0 0 0 155 477 668 931 1094 1017 921 483 418 1345 1616 1567 1484 1392 1383 1321 1343 1381 1513 1644 1662 1634 1376 1524 1655 1163 844 552 361 610 652 501 389 538 750
0 0 0 0 0 0 0 0 0 0 0 0 0 0 201 849 1342 1172 1027 906 588 555 734 802 1569 1548 1401 1293 1264 1218 1270 1368 1507 1593 1510 1403 1424 1380 1266 948 587 448 326 353 438 372 412 506 413
0 0 0 0 0 0 0 0 0 0 0 0 1 99 1119 1346 1594 1048 839 683 490 580 737 859 1489 1522 1390 1335 1203 1107 1112 1230 1356 1393 1421 1325 1265 1192 999 836 648 578 465 353 318 381 283 176 189
0 0 0 0 0 0 0 0 0 0 0 0 0 270 1593 1648 1787 979 806 768 696 755 726 746 611 1123 1460 1357 1145 1049 1028 1099 1166 1220 1255 1286 1237 1034 689 598 599 609 548 469 403 321 177 97 49
0 0 0 0 0 0 0 0 0 0 0 0 33 229 1514 1902 1938 1381 1087 1028 926 892 840 683 546 335 390 621 1320 1189 1131 1125 1108 1178 1204 1226 1147 854 483 554 544 483 497 526 440 272 149 99 63
0 0 0 0 0 0 0 0 0 0 0 16 668 802 1870 1853 1869 1648 1419 1269 1131 923 900 645 554 445 302 260 703 1153 1140 1241 1178 1145 1269 760 185 533 486 99 281 239 207 312 396 374 318 267 260
0 0 0 0 0 0 0 0 0 0 0 4 794 1620 1809 1865 1926 1715 1362 1391 1249 1139 1048 816 705 755 627 471 566 370 347 255 206 205 505 214 187 438 148 219 187 284 232 191 176 171 148 96 0
0 0 0 0 0 0 0 0 0 0 0 0 104 1475 1976 2049 2027 1957 1495 1576 1452 1332 1186 1109 1325 1233 985 688 657 598 604 542 548 541 624 233 201 303 118 51 59 31 211 6 32 0 0 0 0
0 0 0 0 0 0 0 0 0 0 0 0 101 1306 1876 2128 2112 1935 1847 1773 1608 1438 1313 1466 1680 1766 1412 993 1003 959 881 898 891 888 1187 818 574 301 106 40 17 120 8 4 74 5 20 150 101
0 0 0 0 0 0 0 0 0 0 0 0 459 1393 1926 2270 2336 2153 1989 1936 1773 1715 1668 1680 1872 2058 2016 1804 1347 1167 1188 1163 1012 999 1174 841 612 430 199 159 101 30 0 18 11 53 588 772 586
0 0 0 0 0 0 0 0 0 0 0 0 423 809 1198 1880 2306 2409 2314 2180 1946 1861 1871 1810 1890 2169 2143 2186 1885 1650 1580 1356 1307 1224 1111 1143 913 908 381 285 139 58 15 1 10 139 1003 1103 1151
0 0 0 0 0 0 0 0 0 0 0 0 290 509 631 1226 1815 2335 2482 2517 2228 2042 1861 1948 1961 2080 2228 2216 2133 1973 1622 1516 1561 1370 1303 1271 1212 1079 834 250 130 35 36 102 187 706 929 1122 1279
0 0 0 0 0 0 0 0 0 0 0 0 86 255 305 720 1270 1702 2154 2573 2526 2384 2397 2105 1677 1861 2161 2048 1979 1690 1474 1537 1545 1477 1443 1390 1429 1181 1201 395 179 30 91 116 667 922 965 1016 1033
0 0 0 0 0 0 0 0 0 0 0 0 0 0 15 205 460 857 1163 1792 2298 2494 2546 2531 2273 1814 1898 1880 1868 1821 1641 1689 1397 1309 1349 1472 1360 1186 1226 433 188 321 92 57 230 955 1416 1627 1820
0 0 0 0 0 0 0 0 0 0 0 0 0 0 0 0 129 293 390 297 888 1859 2475 2601 2503 2290 2121 1937 1857 1443 1204 1078 900 940 1024 1173 1002 1030 1146 461 339 452 95 58 104 703 1084 1787 1899
0 0 0 0 0 0 0 0 0 0 0 0 0 0 0 0 0 13 151 208 197 720 1952 2511 2601 2415 2159 1812 1523 1218 995 829 592 697 885 866 843 810 886 468 439 688 497 626 737 858 1375 1486 1652
0 0 0 0 0 0 0 0 0 0 0 0 0 0 0 0 0 0 0 84 283 411 770 1507 2297 2517 2460 1993 1838 1425 1252 1218 1074 1028 1100 1359 1240 1127 1083 1154 1376 1576 1655 2025 2104 2208 1602 1347 1482
0 0 0 0 0 0 0 0 0 0 0 0 0 0 0 0 0 0 0 16 343 681 1009 1319 1894 2133 2410 2205 2099 2007 1780 1877 2108 2043 1950 2130 1977 2000 1887 1814 1959 1879 2171 3045 2898 2764 2201 493 1097
0 0 0 0 0 0 0 0 0 0 0 0 0 0 0 0 0 0 0 0 76 334 840 1164 1456 1790 2184 2546 2246 2250 1863 1798 1763 2130 2526 3245 2861 2648 2658 2514 2483 2633 2788 3578 3045 3214 1922 1446 1835
0 0 0 0 0 0 0 0 0 0 0 0 0 0 0 0 0 0 0 0 0 0 95 768 1361 1753 1934 2247 2337 2089 2191 1562 2089 2149 2033 2099 2256 2332 2052 2510 2874 2905 2707 2652 2714 2778 2797 1970 2141
0 0 0 0 0 0 0 0 0 0 0 0 0 0 0 0 0 0 0 0 0 0 0 361 1208 1474 1824 1878 2136 2213 1984 2015 1899 1766 1713 1703 1810 1468 1348 1396 2087 2472 2431 2335 2624 2781 2971 2527 1838
0 0 0 0 0 0 0 0 0 0 0 0 0 0 0 0 0 0 0 0 0 0 0 62 906 1099 1283 1306 1502 1752 1901 1835 1748 1612 1145 900 689 465 497 722 832 856 962 1097 1426 1715 1722 1825 1559
0 0 0 0 0 0 0 0 0 0 0 0 0 0 0 0 0 0 0 0 0 0 0 130 756 1037 1124 1077 1368 1393 1415 1170 906 452 271 251 237 204 84 58 32 71 50 235 553 729 707 795 766
0 0 0 0 0 0 0 0 0 0 0 0 0 0 0 0 0 0 0 0 0 0 46 330 887 761 665 639 534 424 396 336 298 301 199 95 105 84 77 47 39 4 15 34 39 35 97 231 504
0 0 0 0 0 0 0 0 0 0 0 0 0 0 0 0 76 88 229 292 259 483 574 432 455 381 184 310 323 203 129 102 93 46 28 23 32 23 1 0 0 0 0 0 0 0 0 0 3
0 0 0 0 0 0 0 0 0 4 0 1 413 362 338 41 29 17 87 134 200 145 157 87 128 174 146 134 101 73 64 76 71 40 26 22 0 0 0 0 0 0 0 0 0 0 0 0 0
0 0 0 0 0 0 0 0 6 2 56 546 112 75 13 79 100 78 39 48 91 54 8 6 15 34 37 46 75 69 60 42 17 19 14 0 0 0 0 0 0 0 0 0 0 0 0 0 0

GFSSGP_con_mucape_147.txt.gz
CAPE
0 0 0 0 0 0 0 0 11 50 13 92 243 515 483 506 653 1187 904 487 675 665 657 1190 2220 1999 2488 2113 1817 1573 1431 1516 1615 1379 1319 1591 1849 1725 1448 1365 1092 567 435 285 266 288 334 357 372
0 0 0 0 0 0 0 0 9 17 58 40 94 307 233 631 1076 1038 724 524 741 412 354 1033 2067 2013 2376 2134 1945 1830 1741 1720 1464 1236 1552 1711 1723 1496 1036 1077 803 488 467 425 439 416 488 803 957
0 0 0 0 0 0 7 0 13 13 1 0 237 241 96 785 923 872 651 640 638 278 189 1480 2041 2115 2169 2048 1886 1737 1593 1386 1300 1507 1687 1482 1360 1301 1264 1164 835 477 667 699 582 659 923 902 496
0 0 0 0 0 0 0 47 0 30 0 0 0 67 523 871 923 1032 670 705 438 153 338 1542 1850 1942 2015 1980 1808 1614 1470 1445 1485 1667 1712 1491 1188 1318 1286 894 636 437 606 708 620 553 538 433 698
0 0 0 0 0 0 0 24 8 2 2 0 0 78 737 1317 1378 1012 822 676 236 179 407 1043 1728 1826 1920 1927 1765 1624 1509 1474 1618 1735 1697 1462 1326 1256 1012 645 522 384 365 602 580 414 348 509 477
0 0 0 0 0 0 1 51 0 0 0 0 74 203 1309 1186 1411 1000 909 510 276 432 230 526 1497 1670 1717 1747 1652 1527 1430 1515 1589 1642 1658 1587 1411 1220 959 645 492 416 297 302 339 286 283 225 190
0 0 0 0 0 0 0 0 0 0 1 0 0 286 1634 1645 1324 1021 814 451 500 727 266 159 247 941 1502 1488 1421 1342 1314 1365 1425 1440 1452 1472 1420 1212 913 705 592 564 485 351 250 245 186 111 103
0 0 0 0 0 0 0 3 0 0 0 0 0 393 1773 1992 1293 1084 769 531 607 780 610 238 118 52 66 417 1294 1246 1224 1273 1271 1311 1308 1289 1202 891 535 656 557 495 494 391 298 210 107 59 52
0 0 0 0 0 0 0 7 0 0 0 0 252 1159 2374 2107 1603 1227 1085 821 732 649 786 470 291 175 90 32 374 1011 1063 1233 1228 1112 1234 697 30 313 368 153 529 318 302 339 380 339 286 264 491
0 0 0 0 0 0 0 0 0 0 0 0 579 1260 1583 1900 1974 1481 1432 1261 1019 832 715 568 526 519 414 253 292 75 17 24 17 19 200 18 12 405 303 359 462 201 162 142 263 283 286 285 0
0 0 0 0 0 0 0 0 0 0 0 0 464 1494 1481 1991 2192 1844 1660 1478 1265 1027 782 735 1368 1328 783 490 500 353 251 153 91 123 525 530 99 539 241 334 120 2 249 3 46 21 0 0 0
0 0 0 0 0 0 0 0 0 0 0 2 3 1358 1540 1871 2322 2067 1717 1633 1427 1232 990 941 1025 1668 1991 832 775 656 643 627 610 620 943 1048 329 443 170 7 27 106 36 36 80 45 54 24 52
0 0 0 0 0 0 0 0 0 0 0 0 6 931 1489 1843 2159 2272 1938 1861 1743 1538 1308 1149 1393 1966 2532 2320 1188 1065 1207 835 1075 1103 1270 820 590 637 258 262 43 35 11 11 33 0 29 250 580
0 0 0 0 0 0 0 0 0 0 0 0 12 737 1236 1755 2178 2315 2247 2232 2247 2018 1716 1551 1754 2946 2160 2438 2598 1474 1500 1380 1218 1075 1218 1368 1054 1808 369 386 155 49 16 21 7 10 103 838 807
0 0 0 0 0 0 0 0 0 0 0 0 8 476 656 1420 1875 2406 2476 2397 2540 2568 2323 2151 2121 2711 3508 2604 2414 2337 1627 1421 1262 1102 1771 1575 1656 1192 1975 352 218 45 143 41 46 34 216 604 780
0 0 0 0 0 0 0 0 0 0 0 0 0 340 510 760 1494 2011 2559 2863 2967 3287 3061 2477 2081 2189 2777 2889 2740 2318 1845 1495 1305 1283 1306 1569 1599 1638 2246 833 309 136 128 34 41 103 518 572 684
0 0 0 0 0 0 0 0 0 0 0 0 0 151 381 589 971 1582 2025 2877 3360 3489 3102 3069 2599 2162 2476 3040 2664 2670 2653 1778 1469 1909 1816 1590 1665 1653 1994 1081 356 1262 81 54 27 249 892 1331 1633
0 0 0 0 0 0 0 0 0 0 0 0 0 70 227 337 495 981 1513 2335 2970 3055 3587 3420 3168 2629 2592 2571 2524 2086 1762 1757 1568 1353 1306 1338 1541 1566 1887 1528 1581 978 260 72 32 1043 725 1397 2246
0 0 0 0 0 0 0 0 0 0 0 0 0 2 0 11 256 367 372 443 966 2105 2907 3100 3586 3728 3043 2460 2114 1822 1645 1404 1314 1131 1468 1073 1256 1045 1882 993 1332 988 810 1018 1528 717 1319 987 1670
0 0 0 0 0 0 0 0 0 0 0 0 0 3 0 0 19 151 268 346 288 716 1772 2973 3196 3643 3296 2973 2912 2016 1676 1329 1205 945 945 832 1033 1396 1688 1795 1303 1515 1097 2375 2003 2493 2673 1644 1461
0 0 0 0 0 0 0 0 0 0 0 0 0 0 0 0 0 21 116 212 461 606 904 1362 2272 2979 3221 3018 2737 2565 2178 2080 1738 1703 1521 1657 1442 1595 1878 1783 2520 3255 3023 3692 3460 3136 2947 2029 1361
0 0 0 0 0 0 0 0 0 0 0 0 0 0 0 0 0 0 5 133 392 771 936 1236 1750 2442 2688 2871 3178 3488 2738 2357 2536 2867 2375 2217 2012 2383 2432 2814 2717 3309 3863 3773 3022 2807 2781 2636 1348
0 0 0 0 0 0 0 0 0 0 0 0 0 0 0 0 0 0 0 0 80 284 425 1206 1589 1860 2046 2563 2956 3333 3126 2348 1977 2935 2560 2466 2527 2052 1987 2278 2281 2107 2822 3206 3266 3393 3100 2465 2613
2 1 0 0 0 0 0 0 0 0 0 0 0 0 0 0 0 0 0 0 0 0 50 481 1508 1714 2026 2301 2522 2739 2808 2931 2801 2229 2332 2358 2055 2050 1390 1539 1643 2241 2534 2353 2789 2876 2634 2808 2899
7 16 0 0 0 0 0 0 29 0 0 0 0 0 0 0 0 0 0 0 0 0 3 611 1331 1441 1565 1703 1803 2244 2900 2803 2462 2064 2263 1702 904 833 575 499 588 586 563 741 1187 1360 1655 1843 1724
3 0 0 0 0 0 3 0 0 0 0 0 0 0 0 0 0 0 0 0 0 0 0 195 901 1269 1164 1301 1570 2366 2339 1749 1359 1060 887 577 208 73 95 81 77 67 55 46 40 42 466 921 665
10 0 0 1 2 0 1 2 0 0 0 0 0 0 0 0 0 0 0 0 0 0 105 389 1309 1412 1157 1067 1094 941 818 747 578 365 199 183 101 29 30 9 9 2 0 0 3 0 58 106 126
9 0 5 2 0 0 0 0 0 0 0 0 0 0 0 0 0 0 39 1 68 1011 1201 955 854 540 516 499 350 255 286 135 47 29 18 14 9 9 7 5 0 0 0 0 0 0 0 0 0
0 0 2 2 19 0 0 0 2 0 0 4 25 32 536 509 423 491 608 971 812 689 626 477 394 208 7 11 4 0 2 4 11 12 7 14 13 11 2 0 0 0 0 0 0 0 0 0 3
0 0 5 27 28 35 32 79 3 33 56 476 625 688 191 335 353 397 418 318 309 363 200 48 2 10 1 0 1 12 21 18 20 29 33 22 14 14 24 0 0 0 0 0 0 0 0 0 0